Saturday, October 25, 2014
18:59 UTC
  |  Log In   |  Register Free
Airport Search:

Smithville Municipal Airport
(0A3)

Smithville Municipal Airport Diagram
No Airport Diagram Available

FAA data valid effective September 18, 2014 - November 13, 2014 (unless otherwise noted).

 
 
 
 
 
 
 
 
 
 
 
 
 
 

Current Aviation Weather for Smithville Municipal Airport (0A3)

METAR data is unavailable for 0A3. The nearest METAR location is at KSRB (14.2 nm NE from 0A3).

The most recent METAR observation for KSRB was updated at: 1818
METAR Summary (Translated METAR)
KSRB
251755Z AUTO 18003KT 10SM BKN035 BKN047 22/13 A3006 RMK
(14.2 nm NE from 0A3)
KRNC
251755Z AUTO 00000KT 10SM BKN050 22/14 A3007 RMK
(17.3 nm SW from 0A3)
TAF Summary (Translated TAF)
KRNC
(26.3 nm SW from KSRB)
311945Z AUTO 35008KT 10SM CLR 25/12 A3011 RMK AO1 T02500116 $
  Airport Weather Conditions for 0A3

Current weather conditions are
not available for 0A3


The nearest NOAA weather station
is at SRB, (14.2 nm NE from 0A3)
  
 Current Weather at SRB
72° F
Mostly Cloudy
South winds at 3.5 mph
SRB NOAA Radar

Pressure: 30.06 in
Humidity: 57%
Wind: South at 3.5 MPH (3 KT)
Dew Point: 55.4°F
Visibility: 10.00 mi


Airport Weather Forecast for 0A3

Translated METAR and TAF for KSRB
Translated METAR for KSRB (1854 UTC 25 October 2014)
found at http://aviationweather.gov/adds/metars/
 
METAR text: KSRB 251835Z AUTO 31004KT 10SM SCT038 OVC045 22/13 A3005 RMK
Conditions at: KSRB (SPARTA , TN, US) observed 1835 UTC 25 October 2014
Temperature: 22.0°C (72°F)
Dewpoint: 13.0°C (55°F) [RH = 57%]
Pressure (altimeter): 30.05 inches Hg (1017.7 mb)
Winds: from the NW (310 degrees) at 5 MPH (4 knots; 2.1 m/s)
Visibility: 10 or more miles (16+ km)
Ceiling: 4500 feet AGL
Clouds: scattered clouds at 3800 feet AGL
overcast cloud deck at 4500 feet AGL
Weather: no significant weather observed at this time
Translated TAF for KSRB

There is no translated TAF available for this airport

Find All Airport Services Find A Hotel Find A Rental Car Find A Golf Course Find A Restaurant $100 Hamburger



FBO's on the Field
FBO Company Facility Photos Services Transportation Aviation Fuel Prices: Prices include tax
Catering Weather Repair Courtesy Rental Type 100LL JetA JetA+ MOGAS 8087
 
Smithville Municipal Airport

This FBO has not yet been rated
FS:Shell
Last Updated: Sep-19
Login to update fuel prices
SS:
Contact Smithville Municipal AirportMore FBO Information
 
Add another FBO Facility Photos Catering Weather Repair Courtesy Rental Type 100LL JetA JetA+ MOGAS 8087
Services Transportation Aviation Fuel Prices: Prices include tax


model-print
model-print
model-print
model-print